CAPE
0 0 0 0 0 0 0 0 5 9 14 20 85 212 276 264 571 920 1222 1342 922 643 557 594 553 497 517 614 1096 1352 1126 1 2 118 13 43 121 134 162 197 200 196 248 276 421 515 758 847 928 951 1038 1168 1313 1329 1336 1327 1301 1235 1400 1627 1587 1394 1336 1403 1563 1541 1456 1430 1456 1353 1344 1268 1268 1281 1258 1610 1744 2253 2668 2927 3200 3500 3940 3914 4100 4260
0 0 0 0 0 0 0 0 0 0 5 21 16 124 216 288 420 812 1002 1384 1088 648 516 582 665 653 507 494 775 1172 1291 604 161 140 2 111 102 123 158 193 268 326 445 373 458 646 772 851 964 984 984 1177 1261 1287 1256 1219 1321 1334 1384 1586 1614 1403 1222 1300 1466 1563 1496 1442 1422 1286 1256 1183 1121 1279 1735 1495 1716 2261 2580 2887 3147 3593 3752 3776 3719 4792
0 0 0 0 0 0 0 0 0 0 10 7 4 81 164 389 1220 1399 1407 1460 1203 705 606 557 658 519 486 434 540 772 1304 986 796 179 176 214 146 132 103 266 315 342 393 434 490 633 781 872 1002 1037 998 1050 1140 1211 1177 1164 1270 1417 1374 1480 1561 1463 1196 1262 1398 1510 1482 1446 1400 1242 1133 1120 1091 1087 1412 1344 1838 2616 2577 2826 3132 3529 3528 3586 3700 4480
0 0 0 0 0 0 0 0 0 0 0 2 7 10 5 291 349 209 1452 1420 1282 807 900 667 590 464 439 412 447 545 1197 1210 895 912 631 437 278 168 120 251 351 376 421 464 491 601 766 880 1001 1069 1070 1042 1061 1125 1086 1147 1271 1406 1454 1420 1439 1465 1266 1213 1370 1557 1487 1413 1398 1282 1135 1062 1045 1092 1955 1786 2218 2558 2641 2841 3132 3307 3366 3498 3620 3772
0 0 0 0 0 0 0 0 0 0 0 0 9 8 109 409 451 188 962 1260 1253 909 952 769 672 564 605 514 391 470 741 1046 1055 1046 863 708 681 238 136 323 364 412 438 481 498 518 740 860 979 1076 1134 1108 1074 1077 1055 1113 1262 1370 1453 1422 1389 1365 1272 1200 1469 1560 1496 1488 1322 1222 1340 1564 1457 1593 1589 1747 2067 2435 2768 2878 3093 3336 3276 3312 3407 3438
0 0 0 0 0 0 0 0 0 0 0 0 2 29 66 392 542 1164 1230 1168 1032 1066 952 773 155 89 244 368 406 408 722 1044 1090 1123 1017 800 821 612 365 356 380 437 454 494 510 514 677 809 929 1023 1116 1159 1110 1065 1041 1048 1168 1278 1359 1379 1358 1328 1211 1136 1210 1342 1409 1593 1198 1037 1106 1191 1270 1351 1454 1612 1851 2243 2753 3079 2872 3222 3244 3179 3182 3086
0 0 0 0 0 0 0 0 0 0 0 0 3 11 180 534 958 1177 1225 633 452 282 423 845 251 4 0 138 282 364 500 740 986 1124 1150 848 794 809 412 388 396 446 481 488 506 462 530 731 848 949 1057 1129 1126 1069 1022 1016 1034 1107 1178 1225 1258 1288 1229 1098 1120 1209 1304 1258 1152 966 975 1043 1133 1229 1335 1392 1536 2029 2349 2699 2759 3058 3188 3104 3108 3177
0 0 0 0 0 0 0 0 0 0 0 0 0 36 439 831 1022 1110 844 308 345 411 667 864 433 167 110 18 239 195 368 496 740 1023 1172 1059 875 1008 540 397 408 429 488 486 516 521 505 684 784 881 964 1063 1097 1066 1010 1002 971 973 1053 1080 1144 1213 1209 1078 1054 1106 1178 1116 1045 905 930 1051 1041 1072 1235 1343 1467 1744 2350 2545 2655 2845 3032 3063 2942 2950
0 0 0 0 0 0 0 0 0 0 0 0 125 287 541 804 1005 967 500 406 425 371 428 781 583 340 130 73 142 360 147 305 498 674 997 1097 1025 1010 1004 463 434 461 482 499 503 497 526 652 751 810 887 989 1037 1028 1001 969 968 990 1046 1100 1160 1198 1176 1064 1016 1020 1027 1064 969 853 896 1019 1094 1001 1085 1464 2168 1967 2876 2338 2464 2627 2815 2943 2894 2780
0 0 0 0 0 0 0 0 0 0 0 117 693 701 725 765 862 695 362 354 298 95 76 573 586 188 127 0 380 438 201 153 161 404 590 969 1061 1008 1078 941 456 466 496 500 502 517 535 548 718 788 843 925 988 980 965 952 979 1051 1083 1057 1093 1137 1091 1004 984 1202 979 954 1195 799 847 957 1024 1392 1223 1352 1853 1761 2353 2101 2196 2371 2580 2725 2717 2672
0 0 0 0 0 0 0 0 0 0 0 625 706 686 688 650 610 463 317 335 370 116 123 107 540 182 10 210 376 193 295 179 13 2 63 392 797 986 1013 1142 777 474 461 492 496 518 548 556 656 765 828 896 939 946 954 950 958 1008 1055 971 976 989 943 874 1014 1046 1054 857 1009 834 741 818 916 1115 1082 1176 1339 1670 1920 1915 1908 2071 2262 2420 2508 2484
0 0 0 0 0 0 0 0 0 137 588 651 647 716 580 533 480 451 350 258 203 183 41 309 262 362 16 102 137 405 337 342 340 306 142 170 291 642 932 1060 1101 697 530 520 519 546 553 554 575 733 814 865 917 932 970 978 917 888 930 920 876 847 800 782 986 1057 1078 950 906 887 822 830 770 1016 1087 1121 1165 1453 1697 1797 1832 1889 2008 2154 2292 2352
0 0 0 0 20 0 0 0 0 0 0 107 593 239 8 443 454 379 308 326 141 80 124 184 331 311 124 0 12 217 296 464 572 525 427 452 353 392 677 954 1096 955 686 543 535 537 550 572 563 683 779 839 882 921 956 1004 968 894 870 880 814 802 743 698 780 1179 1082 1038 1003 915 886 903 962 900 1065 1047 1039 1185 1464 1596 1728 1797 1870 1939 2071 2170
0 0 0 0 0 0 0 0 0 0 0 0 25 0 0 0 5 102 111 0 33 52 8 212 324 242 100 115 187 302 498 733 764 721 684 558 535 489 512 806 1014 1038 864 690 546 520 554 580 572 574 733 807 863 882 918 954 940 913 902 871 797 781 726 668 587 1107 1150 1083 1091 1031 966 966 1186 991 988 1003 990 1041 1286 1424 1602 1690 1774 1801 1888 1980
0 0 0 0 0 0 0 0 0 0 0 0 0 0 0 0 0 0 0 12 0 0 233 360 59 24 78 343 395 494 706 749 814 962 985 994 838 662 686 672 920 1027 929 832 682 566 565 589 592 584 690 767 820 844 872 875 874 808 750 686 653 705 731 688 595 968 1159 1140 1145 1133 1048 983 988 999 1071 996 1002 1001 1176 1299 1466 1547 1642 1665 1754 1869
0 0 0 0 0 0 0 0 0 0 0 0 0 0 0 0 0 0 0 0 0 152 291 194 51 0 11 384 496 449 694 788 810 860 1014 1043 1020 935 878 864 820 982 1006 862 792 668 590 580 607 604 588 728 774 803 792 799 794 756 746 709 650 602 617 607 594 772 1091 1179 1196 1219 1156 1102 1101 1516 1182 1192 1524 1217 1040 1266 1419 1486 1499 1540 1606 1733
0 0 0 0 0 0 0 0 0 0 0 0 0 0 0 0 0 0 35 0 27 3 0 268 212 140 44 252 381 557 606 668 664 713 851 1005 1062 1093 1072 1028 906 923 1001 954 790 737 639 605 615 628 621 627 743 742 744 754 769 761 744 716 652 575 508 455 558 574 924 1141 1231 1262 1246 1271 1305 1380 1272 1115 1195 1303 1219 1282 1359 1443 1488 1511 1499 1594
0 0 0 0 0 0 0 0 0 0 0 0 0 0 0 0 0 0 0 0 0 0 0 0 155 111 60 205 322 505 611 644 639 680 813 827 1002 1130 1127 1128 1093 964 988 993 887 728 661 627 619 627 638 627 714 734 719 742 746 742 716 609 630 573 523 474 443 465 713 1016 1172 1276 1298 1313 1425 1477 1458 1431 1392 1315 1379 1421 1432 1512 1594 1659 1817 1882
0 0 0 0 0 0 0 0 0 0 0 0 0 0 0 0 0 0 0 0 0 0 0 0 0 7 0 7 214 412 555 604 668 675 748 770 823 884 1080 1137 1194 1186 1068 1031 950 845 690 617 543 565 588 577 557 679 717 720 709 708 662 564 572 582 520 473 430 442 628 813 1018 1158 1308 1345 1382 1479 1570 1562 1527 1455 1430 1525 1518 1592 1698 1738 1901 2312
0 0 0 0 0 0 0 0 0 0 0 0 0 0 0 0 0 0 0 0 0 0 0 0 0 0 0 0 329 594 642 676 727 760 615 651 714 779 818 1096 1148 1210 1221 1130 1070 950 848 701 575 579 613 603 588 643 662 620 626 645 610 548 524 516 532 474 522 607 541 676 846 978 1129 1294 1352 1373 1519 1609 1660 1630 1572 1579 1626 1664 1692 1818 2148 2109
0 0 0 0 0 0 0 0 0 0 0 0 0 0 0 0 0 0 0 0 0 0 0 0 0 0 0 0 533 652 609 736 900 865 817 737 569 718 776 750 1036 1175 1196 1236 1187 1126 1012 836 693 619 629 638 478 435 569 695 629 594 561 553 477 507 524 518 600 576 619 661 760 914 921 1059 1180 1243 1383 1576 1606 1779 1810 1731 1970 1719 1758 1852 1931 2069
0 0 0 0 0 0 0 0 0 0 0 0 0 0 0 0 0 3 0 0 0 0 0 0 0 0 0 8 544 728 798 1084 1108 989 797 667 675 739 955 1105 1076 867 1124 1184 1209 1226 1158 978 815 673 660 668 514 370 380 504 620 601 580 582 480 478 476 587 616 647 638 691 740 780 837 906 996 1089 1175 1478 1543 1698 1768 1833 1963 1930 1849 1771 1808 1852
0 0 0 0 0 0 0 0 0 0 0 0 0 0 0 0 0 0 0 0 0 0 0 0 0 0 0 4 620 716 753 813 963 902 761 644 685 744 942 1098 985 899 786 1005 1090 1071 1008 873 835 846 706 525 448 359 318 352 470 569 611 567 530 500 530 614 618 639 677 704 773 824 822 870 945 990 1058 1268 1431 1538 1592 1667 1800 1899 1920 1888 1887 1921
246 0 0 0 0 0 0 0 0 0 0 0 0 0 0 0 0 0 0 0 0 0 0 0 0 0 0 514 677 674 675 703 844 813 794 743 677 840 1020 1017 947 810 654 849 673 915 978 864 704 656 523 434 435 420 409 353 378 470 538 562 498 528 484 693 661 644 723 700 775 840 880 902 948 989 1038 1099 1221 1359 1478 1514 1568 1647 1742 1837 1900 1966
0 0 0 0 0 0 0 0 0 0 0 0 0 0 0 0 0 0 0 0 0 0 0 0 0 0 0 328 615 502 474 533 622 743 802 685 639 763 891 901 791 688 679 668 845 846 767 852 803 673 538 334 375 452 417 360 358 402 442 470 510 510 540 680 745 694 736 737 785 845 898 951 992 1042 1047 1071 1040 1153 1258 1324 1425 1496 1527 1558 1592 1642
0 0 0 0 0 0 0 0 0 0 0 0 0 0 0 0 0 0 26 0 0 0 0 0 0 0 0 0 366 414 350 259 429 496 637 704 768 745 749 701 626 561 628 634 736 842 873 865 882 832 736 605 328 370 372 417 385 409 423 442 621 701 791 513 750 762 798 810 805 837 875 928 1002 1052 1082 1087 1042 1019 1079 1164 1202 1283 1364 1386 1384 1373
0 0 0 0 0 0 0 0 0 0 0 0 0 0 0 0 0 0 0 0 0 0 0 0 0 0 0 0 0 84 80 2 6 20 387 655 762 665 523 502 503 513 532 561 605 645 810 867 890 888 867 740 575 330 376 397 464 415 399 387 591 662 750 835 805 808 865 912 866 854 857 907 946 1024 1056 1174 1182 1050 999 1018 1063 1087 1148 1223 1258 1272
0 0 0 0 0 0 0 0 0 1 0 0 0 0 0 0 0 0 0 0 0 0 0 0 0 0 0 0 0 0 0 0 0 0 441 728 634 451 400 411 427 547 575 662 593 550 602 803 903 868 849 833 739 554 420 415 435 458 458 442 464 649 742 795 828 828 854 999 997 945 942 936 954 995 1049 1097 1163 1145 1066 1014 993 1024 1026 1133 1143 1181
0 0 0 0 0 0 0 0 0 0 0 0 0 0 0 0 0 0 0 0 0 0 0 0 0 0 0 0 0 0 0 0 0 0 0 391 458 409 454 502 571 742 800 828 844 779 602 556 656 790 802 783 704 609 460 366 389 408 421 431 442 645 714 835 878 840 849 1006 1123 1114 1080 1067 1077 1059 1087 1260 1132 1099 1108 1090 1055 1040 1044 1078 1139 1183
0 0 0 0 0 0 0 0 0 0 0 0 0 0 0 0 0 0 0 0 0 0 0 0 0 0 0 0 0 368 299 9 477 548 604 616 488 523 504 502 451 764 804 880 811 735 782 794 808 778 758 773 712 620 529 425 340 363 365 378 396 604 697 785 900 909 901 970 1111 1226 1242 1218 1253 1238 1140 1160 1181 1109 1124 1124 1122 1111 1116 1119 1137 1175
0 0 273 0 0 0 0 0 0 0 0 0 0 0 0 0 0 0 0 0 0 0 0 0 0 0 0 0 222 740 812 740 712 591 494 531 600 567 562 503 451 515 592 617 619 566 546 572 588 675 786 836 805 696 595 530 455 390 374 355 368 450 685 789 877 948 964 979 1060 1195 1291 1298 1330 1342 1252 1176 1212 1170 1173 1190 1193 1204 1209 1202 1197 1195
0 0 0 0 0 0 0 0 0 0 0 0 0 0 0 0 0 0 0 0 0 0 5 0 0 0 0 48 907 919 839 694 528 552 519 504 537 574 516 538 562 512 579 558 482 510 490 472 443 426 420 522 758 744 562 457 413 381 358 364 351 356 492 790 881 951 1025 1051 1071 1147 1244 1302 1345 1361 1349 1285 1276 1275 1288 1324 1362 1386 1376 1343 1359 1401
0 0 0 0 0 0 0 0 0 0 0 0 0 0 0 0 0 0 0 1 0 1 1 6 0 0 0 602 856 778 655 679 790 652 569 573 539 592 585 573 671 584 646 637 557 505 472 443 436 403 357 354 406 557 666 593 418 354 342 354 358 294 295 644 863 978 1049 1092 1118 1147 1190 1255 1317 1315 1354 1372 1374 1384 1410 1470 1502 1525 1488 1388 1436 1481
0 0 0 0 0 0 0 0 0 0 0 0 0 0 0 0 0 0 0 0 17 0 1 0 0 7 370 956 723 631 380 550 688 703 578 624 618 619 696 649 658 693 675 621 500 396 320 336 376 380 357 296 258 246 381 631 610 447 376 471 321 323 288 451 670 912 1063 1126 1129 1163 1164 1191 1257 1313 1355 1392 1428 1462 1511 1524 1540 1571 1524 1430 1383 1454
0 0 0 0 0 0 0 0 0 0 0 0 0 43 0 0 0 4 558 487 643 251 276 118 312 564 956 906 777 812 746 712 786 682 708 753 788 750 647 604 822 777 673 506 410 358 327 280 302 336 318 285 244 198 234 408 621 606 547 565 496 376 288 312 469 671 960 1087 1133 1150 1172 1195 1211 1250 1306 1356 1406 1474 1472 1459 1540 1592 1578 1460 1391 1395
0 0 0 0 0 0 0 0 0 0 0 0 155 322 33 1 14 96 0 385 636 657 637 531 699 1020 959 923 918 831 864 825 750 786 850 882 736 717 678 598 574 509 452 455 421 372 331 305 261 242 240 230 238 129 66 68 432 622 581 448 562 576 466 385 356 443 672 977 1153 1219 1238 1241 1262 1252 1280 1296 1324 1335 1415 1474 1534 1631 1568 1458 1388 1397
0 0 0 0 0 0 0 0 0 0 0 147 0 131 30 187 8 0 0 27 580 602 787 866 1030 1064 1127 1074 1085 1021 797 698 266 329 753 875 762 702 616 554 487 572 536 464 361 327 293 224 197 253 231 225 242 245 242 2 1 260 504 565 439 473 530 496 430 415 523 721 971 1170 1255 1283 1287 1275 1246 1217 1039 985 1421 1514 1534 1543 1487 1444 1370 1341
0 0 0 0 0 0 0 0 0 0 0 0 0 0 0 0 0 0 0 0 259 540 683 1029 1126 1187 1155 1175 1078 833 637 51 0 0 808 817 758 708 620 629 622 575 484 375 300 306 351 388 348 348 350 336 309 266 36 2 2 2 1 332 501 469 459 542 540 508 482 692 852 999 1118 1205 1260 1304 1307 1075 846 619 1006 1453 1487 1474 1460 1423 1329 1284
0 0 0 0 0 0 0 0 0 0 0 0 0 26 156 0 0 147 0 0 0 483 626 960 1182 1270 1307 1184 869 756 299 4 0 0 451 868 790 712 678 620 582 419 351 295 246 277 373 445 470 418 364 322 248 43 3 2 1 1 1 1 1 201 446 432 530 558 565 532 612 836 1019 1144 1134 1071 963 845 778 609 966 1311 1488 1455 1444 1416 1330 1277
0 0 0 0 0 0 0 0 0 0 0 0 0 0 94 0 0 0 0 0 0 529 849 1119 1301 1320 1061 907 878 575 181 0 0 0 827 861 800 692 611 570 393 347 293 246 222 251 358 408 395 405 365 299 278 238 1 2 1 0 0 0 2 1 7 334 418 468 523 571 555 501 601 784 956 1008 1025 1038 1066 1037 964 1235 1427 1400 1301 1265 1387 1293
0 0 0 0 0 0 0 0 0 0 0 0 0 0 0 0 0 0 0 0 0 570 995 1209 1148 842 824 799 692 323 337 0 208 614 797 753 671 612 528 455 433 340 147 200 160 236 265 264 264 262 254 212 64 3 2 1 0 0 0 0 0 0 1 3 180 334 440 506 546 577 538 620 734 872 967 1005 1012 1046 978 945 1180 1370 1502 1584 1548 1414
1 0 0 0 0 0 0 0 0 0 0 0 0 0 0 0 0 0 0 0 173 651 1073 1074 800 556 538 583 556 160 240 123 692 778 748 678 638 506 435 452 296 20 0 0 174 278 278 255 237 103 4 17 17 202 75 10 44 73 18 294 455 386 0 1 98 251 343 435 501 560 568 527 559 672 780 859 946 1010 964 915 1143 1515 1543 1599 1395 1435
6 3 4 2 0 0 0 0 0 0 0 0 0 15 0 0 0 0 0 47 356 701 920 1021 688 438 342 468 482 414 476 700 697 741 791 772 645 608 511 378 8 0 0 0 118 343 334 331 298 86 210 261 229 36 41 42 104 182 253 358 459 169 0 2 85 194 282 379 490 537 582 594 582 702 790 851 837 889 1035 1170 1350 1511 1527 1425 1168 1289
3 0 2 2 1 1 0 0 0 0 0 0 0 25 0 0 0 0 35 204 362 590 807 906 790 664 384 394 421 406 462 706 763 792 776 709 573 491 482 411 0 0 0 0 0 18 258 310 1 333 286 250 43 64 64 95 176 278 315 386 455 264 7 34 88 194 235 312 426 482 550 629 712 758 849 818 825 872 1139 1364 1434 1386 1160 1157 1454 1534
1 0 0 2 1 0 0 0 0 0 0 0 0 0 0 0 0 0 0 145 277 423 611 662 726 621 485 412 437 344 503 678 653 654 711 637 523 473 479 0 0 0 0 0 0 0 1 0 0 0 294 72 95 93 136 150 252 344 380 435 450 385 247 124 180 229 245 321 395 420 530 612 707 719 796 936 898 959 932 1042 1297 1200 1107 1311 1306 1309
0 0 0 0 0 0 0 0 0 0 0 0 0 0 0 1 0 0 6 100 152 189 253 361 474 513 400 477 502 522 534 639 673 640 603 605 506 450 381 0 0 0 0 0 0 0 0 0 1 22 109 181 156 85 172 267 299 390 444 414 412 429 430 318 261 270 308 305 292 282 487 562 560 526 678 843 974 972 904 1133 1240 1317 1237 1149 1029 972
5 0 0 0 0 0 0 0 12 0 8 54 50 63 84 0 2 0 142 118 186 302 249 282 289 379 500 606 584 509 572 638 604 556 534 541 534 427 200 0 0 0 0 0 0 0 0 0 4 68 158 250 195 265 306 282 356 327 290 304 371 398 411 360 309 310 229 256 259 270 227 410 350 408 490 634 677 761 808 797 1069 1094 944 721 706 544
3 1 0 0 2 0 0 0 156 228 275 278 164 156 220 218 193 142 136 186 230 386 372 430 493 540 637 636 673 612 545 580 572 552 501 479 446 203 0 0 0 0 0 0 0 0 3 7 11 101 216 297 280 335 369 326 325 319 366 321 288 301 304 378 385 306 301 334 335 282 314 466 519 566 634 532 579 843 770 603 518 496 378 254 215 161
0 0 7 0 0 182 38 158 282 392 374 368 260 273 288 222 203 172 193 240 328 414 463 380 393 505 466 572 592 574 541 546 524 483 438 409 332 129 0 0 0 0 0 0 0 0 6 190 297 335 303 316 320 413 392 345 334 289 305 277 246 196 170 0 2 0 204 236 308 299 347 306 443 345 595 539 334 186 134 136 115 123 102 66 45 12
0 0 0 1 2 1 2 79 248 2 26 221 319 335 311 272 253 292 319 305 353 388 406 433 411 495 488 519 539 550 584 510 483 448 397 322 105 0 0 0 0 0 0 0 0 0 63 208 270 336 385 380 371 406 341 234 170 166 117 77 64 50 27 0 0 21 108 157 170 128 72 57 109 88 39 60 65 62 47 32 6 34 40 17 4 2
0 0 0 0 3 6 1 32 63 17 6 37 223 356 358 368 373 358 367 341 341 372 426 446 452 593 645 638 644 583 532 482 422 390 354 242 0 0 0 0 0 0 0 0 0 0 3 163 349 372 402 356 363 334 265 130 58 42 23 0 5 63 0 0 4 13 70 141 109 39 15 11 9 14 6 8 14 17 16 14 8 6 4 6 2 0
Wind_Speed
nan nan nan nan nan nan nan nan nan nan nan nan nan 14 11 14 14 11 8 7 6 6 4 6 8 8 8 8 9 9 9 nan nan 2 nan nan 2 2 1 0 1 4 5 1 4 6 7 7 5 5 5 6 5 4 4 5 7 7 7 7 8 8 9 10 10 11 10 11 10 11 9 10 10 9 9 9 10 8 8 9 10 10 8 8 8 9
nan nan nan nan nan nan nan nan nan nan nan nan nan 12 12 13 13 12 8 6 4 4 5 6 8 7 5 7 8 10 9 3 2 1 nan 1 2 3 1 1 2 2 7 3 2 4 5 5 5 4 4 4 5 5 3 4 6 7 6 6 7 7 8 9 9 10 10 11 9 8 8 7 8 7 7 8 8 8 8 9 10 9 7 7 8 9
nan nan nan nan nan nan nan nan nan nan nan nan nan nan 14 10 13 15 15 10 7 8 7 7 3 4 4 2 4 6 6 6 4 3 2 4 2 4 4 4 6 7 3 2 2 3 5 7 6 4 4 5 5 4 4 3 4 6 7 6 6 6 7 8 9 9 10 11 10 9 8 6 8 9 8 7 7 7 7 8 9 8 7 7 8 9
nan nan nan nan nan nan nan nan nan nan nan nan nan nan nan 8 14 14 15 13 13 11 9 7 5 4 6 4 0 3 4 6 5 6 6 5 3 2 2 2 2 5 4 0 3 5 5 6 5 4 4 5 3 2 2 3 4 5 6 7 5 5 6 7 9 9 10 10 10 11 11 9 9 8 7 8 8 7 7 8 8 8 7 7 7 8
nan nan nan nan nan nan nan nan nan nan nan nan nan nan 11 10 10 15 14 15 15 15 14 12 10 8 4 4 6 7 6 5 5 7 9 10 7 6 7 6 2 6 5 1 1 3 4 6 7 7 6 3 3 3 3 3 3 5 5 5 5 5 4 6 7 8 9 11 13 14 15 12 13 13 11 9 8 6 7 7 7 7 6 6 7 7
nan nan nan nan nan nan nan nan nan nan nan nan nan nan nan 13 17 21 21 19 16 14 11 12 12 nan 8 7 4 9 10 4 6 6 5 6 7 6 5 5 7 6 2 4 3 6 8 7 5 4 4 4 4 3 3 3 2 2 4 3 5 6 6 5 6 6 8 8 8 9 9 8 9 9 7 4 3 3 4 5 5 6 5 5 5 5
nan nan nan nan nan nan nan nan nan nan nan nan nan nan 17 17 19 20 19 20 16 13 12 13 13 nan nan 11 11 12 10 6 8 7 6 5 5 4 4 6 6 5 5 6 4 2 3 3 3 4 6 6 5 4 2 1 1 1 2 2 2 4 5 5 6 6 6 7 7 5 4 4 4 4 6 6 5 3 5 7 5 5 5 5 4 5
nan nan nan nan nan nan nan nan nan nan nan nan nan nan 21 21 19 18 20 18 15 16 15 18 15 13 12 nan 12 11 11 9 6 6 6 5 5 4 6 6 6 6 5 3 3 3 2 3 5 6 7 7 7 4 3 2 1 1 0 1 2 3 4 5 6 5 5 6 6 6 6 6 6 6 5 5 6 7 8 7 6 6 6 5 5 5
nan nan nan nan nan nan nan nan nan nan nan nan 18 21 20 19 18 19 19 16 15 16 15 16 17 15 11 nan 15 14 12 10 5 5 3 3 4 4 5 7 6 6 5 4 4 3 2 2 3 3 4 6 5 4 4 3 2 1 2 2 3 3 4 5 6 5 5 5 5 5 6 7 8 8 9 10 10 9 8 6 8 7 6 6 6 5
nan nan nan nan nan nan nan nan nan nan nan 15 21 27 25 24 22 20 16 16 12 nan nan 15 19 18 11 nan 17 16 14 11 7 6 5 3 3 5 6 7 7 9 9 7 4 4 3 2 2 3 3 3 5 5 4 3 4 3 4 3 3 2 3 5 5 5 4 5 6 6 6 6 8 11 13 12 10 10 9 7 7 8 7 7 7 6
nan nan nan nan nan nan nan nan nan nan nan 17 24 27 25 22 18 17 20 15 14 9 8 12 15 20 nan 12 15 19 15 13 nan nan nan 8 4 5 6 6 7 8 9 10 8 7 5 3 2 3 4 5 4 3 5 5 4 4 4 3 2 2 3 4 4 5 4 5 6 5 5 5 7 8 10 11 11 12 11 9 8 8 7 8 7 7
nan nan nan nan nan nan nan nan nan 12 15 18 17 18 23 19 19 19 16 19 13 6 nan 10 15 17 nan 13 14 10 14 16 16 13 11 9 5 4 4 5 7 8 9 11 11 9 8 6 4 4 2 4 4 4 5 4 5 5 4 4 2 3 3 4 5 5 5 5 5 4 4 4 6 7 8 8 8 9 8 8 8 9 10 9 9 9
nan nan nan nan nan nan nan nan nan nan nan 18 21 21 nan 15 18 16 17 17 13 nan 15 16 18 15 8 nan nan 11 13 16 16 14 10 10 8 6 4 4 7 10 9 10 12 13 11 6 4 4 4 5 5 4 5 6 5 5 4 4 3 1 3 3 5 4 5 5 4 3 3 4 6 6 7 7 8 8 8 9 9 10 9 9 9 8
nan nan nan nan nan nan nan nan nan nan nan nan nan nan nan nan nan 18 17 nan nan nan nan 18 17 13 nan 8 8 9 12 15 16 16 14 12 11 10 7 5 6 9 10 9 11 14 14 9 6 5 6 5 6 5 5 5 5 5 5 4 3 2 3 5 5 5 5 4 4 4 3 4 6 7 8 8 8 8 8 9 8 8 8 7 7 7
nan nan nan nan nan nan nan nan nan nan nan nan nan nan nan nan nan nan nan nan nan nan 17 15 nan nan nan 10 12 10 12 16 18 18 18 17 15 13 11 9 6 7 10 10 9 11 14 13 9 7 7 7 7 7 6 5 5 5 5 6 4 4 5 5 5 6 5 5 5 4 4 5 6 6 7 8 8 8 8 8 8 8 8 7 7 7
nan nan nan nan nan nan nan nan nan nan nan nan nan nan nan nan nan nan nan nan nan 22 21 19 nan nan nan 10 7 10 10 15 19 23 25 26 24 20 17 13 9 7 8 10 10 9 12 16 14 10 9 9 9 7 7 6 6 5 5 6 5 5 6 6 6 6 6 7 7 6 5 5 6 7 7 9 10 10 9 8 8 8 8 8 8 9
nan nan nan nan nan nan nan nan nan nan nan nan nan nan nan nan nan nan nan nan nan nan nan 20 15 13 nan 8 8 9 13 14 19 23 25 26 26 26 22 18 13 11 10 11 11 11 11 16 18 14 10 10 9 8 7 7 7 5 5 6 6 6 7 7 6 7 9 10 9 7 6 7 6 6 6 7 8 9 10 10 9 9 9 10 10 10
nan nan nan nan nan nan nan nan nan nan nan nan nan nan nan nan nan nan nan nan nan nan nan nan 17 12 nan 9 9 11 14 13 17 19 20 25 28 29 26 23 19 16 14 14 15 16 14 15 17 17 15 12 9 8 8 8 8 6 5 6 6 7 7 7 8 9 10 10 10 10 8 8 7 7 7 7 7 9 10 11 10 11 10 9 9 9
nan nan nan nan nan nan nan nan nan nan nan nan nan nan nan nan nan nan nan nan nan nan nan nan nan nan nan nan 12 13 14 15 16 17 21 23 24 26 29 28 25 23 20 18 17 19 19 20 22 23 23 19 14 11 10 10 10 9 6 6 6 6 6 6 8 9 11 11 12 12 10 9 9 9 8 8 8 9 10 10 10 9 9 10 9 9
nan nan nan nan nan nan nan nan nan nan nan nan nan nan nan nan nan nan nan nan nan nan nan nan nan nan nan nan 16 15 13 14 15 19 21 20 19 20 24 28 27 25 25 24 21 21 24 28 30 33 37 39 35 28 21 14 12 9 7 6 7 8 9 9 8 10 10 11 12 12 13 12 11 10 9 9 10 10 9 10 9 9 9 8 9 8
nan nan nan nan nan nan nan nan nan nan nan nan nan nan nan nan nan nan nan nan nan nan nan nan nan nan nan nan 19 15 14 13 15 17 19 19 19 18 21 23 25 27 27 23 20 21 24 26 26 25 27 27 21 19 19 16 12 10 10 7 7 8 8 8 8 9 10 13 12 12 12 11 12 11 12 12 11 11 10 10 10 9 9 10 8 8
nan nan nan nan nan nan nan nan nan nan nan nan nan nan nan nan nan nan nan nan nan nan nan nan nan nan nan nan 17 18 15 14 13 16 17 20 20 19 19 21 22 24 24 21 21 25 24 24 23 23 24 27 25 23 19 17 15 13 10 8 8 9 9 9 10 10 11 12 13 11 12 12 13 14 14 13 13 12 12 12 12 10 10 8 8 7
nan nan nan nan nan nan nan nan nan nan nan nan nan nan nan nan nan nan nan nan nan nan nan nan nan nan nan nan 16 17 17 14 14 15 15 19 22 18 18 17 18 20 22 22 22 23 22 22 21 23 25 26 27 27 22 20 17 14 12 12 11 10 9 10 11 11 11 11 12 12 12 14 14 15 14 14 15 14 14 14 13 12 10 10 9 8
14 nan nan nan nan nan nan nan nan nan nan nan nan nan nan nan nan nan nan nan nan nan nan nan nan nan nan 16 16 16 15 14 13 14 13 18 23 20 17 18 18 19 23 25 24 24 24 22 20 23 24 22 25 27 25 22 19 16 15 15 14 10 10 12 14 14 13 11 10 11 13 13 14 15 15 15 16 14 14 14 14 13 11 10 10 9
nan nan nan nan nan nan nan nan nan nan nan nan nan nan nan nan nan nan nan nan nan nan nan nan nan nan nan 16 17 16 15 13 12 12 14 14 22 23 19 18 17 17 21 25 26 24 24 25 21 19 21 21 22 26 26 24 22 19 16 17 15 13 13 13 15 16 14 12 11 11 12 12 13 14 14 14 15 14 14 14 14 14 12 11 9 9
nan nan nan nan nan nan nan nan nan nan nan nan nan nan nan nan nan nan nan nan nan nan nan nan nan nan nan nan 15 15 15 13 11 11 13 15 20 25 21 18 17 17 18 21 23 23 23 24 25 24 24 23 21 22 25 27 27 23 19 16 17 16 16 14 15 15 15 15 13 12 11 12 14 13 14 14 15 13 14 14 14 13 13 11 9 9
nan nan nan nan nan nan nan nan nan nan nan nan nan nan nan nan nan nan nan nan nan nan nan nan nan nan nan nan nan nan nan nan nan nan 14 15 19 22 22 19 18 17 17 18 20 21 20 22 24 24 24 24 24 24 26 28 29 28 23 19 18 18 17 17 16 15 16 16 14 14 12 13 13 13 14 14 14 14 14 13 13 12 11 10 9 9
nan nan nan nan nan nan nan nan nan nan nan nan nan nan nan nan nan nan nan nan nan nan nan nan nan nan nan nan nan nan nan nan nan nan 15 16 18 20 21 21 22 21 20 19 21 23 23 21 21 23 23 22 22 24 26 28 30 30 27 22 21 20 19 19 17 15 15 16 15 15 14 14 14 15 15 16 15 14 13 12 12 11 10 10 8 9
nan nan nan nan nan nan nan nan nan nan nan nan nan nan nan nan nan nan nan nan nan nan nan nan nan nan nan nan nan nan nan nan nan nan nan 19 21 21 22 24 25 23 21 22 21 21 22 21 21 20 20 20 21 21 22 23 25 30 31 29 26 24 20 19 19 16 15 15 14 14 15 17 17 18 17 17 16 15 14 13 12 12 11 10 10 12
nan nan nan nan nan nan nan nan nan nan nan nan nan nan nan nan nan nan nan nan nan nan nan nan nan nan nan nan nan 23 23 nan 21 20 20 22 22 23 23 22 24 25 24 22 22 21 21 20 20 20 20 19 19 20 21 21 22 26 31 31 28 26 24 23 19 18 16 14 13 15 17 18 19 19 19 18 16 15 14 13 13 13 12 12 12 13
nan nan 32 nan nan nan nan nan nan nan nan nan nan nan nan nan nan nan nan nan nan nan nan nan nan nan nan nan 22 24 26 26 27 24 22 21 22 23 23 22 22 23 22 20 20 21 21 21 22 22 21 20 20 19 20 21 22 24 30 32 31 28 28 27 22 19 17 14 13 15 19 20 19 20 19 17 16 16 16 15 16 16 16 15 15 15
nan nan nan nan nan nan nan nan nan nan nan nan nan nan nan nan nan nan nan nan nan nan nan nan nan nan nan nan 23 26 27 28 27 25 24 23 22 23 22 21 20 20 21 19 19 20 22 23 22 22 22 22 22 21 20 21 22 22 25 30 31 32 33 30 26 22 19 17 17 18 19 20 21 21 19 19 17 16 17 18 19 19 19 18 17 18
nan nan nan nan nan nan nan nan nan nan nan nan nan nan nan nan nan nan nan nan nan nan nan nan nan nan nan 19 23 23 26 25 26 25 25 23 21 20 19 19 18 18 21 21 20 19 21 21 21 20 21 21 22 23 21 20 21 22 24 27 30 36 36 32 29 27 23 21 21 20 21 22 22 22 21 20 19 19 20 20 20 20 20 18 18 21
nan nan nan nan nan nan nan nan nan nan nan nan nan nan nan nan nan nan nan nan nan nan nan nan nan nan 23 22 22 20 24 24 24 23 24 23 23 19 18 19 19 20 22 21 20 19 19 20 19 18 18 19 20 22 22 21 20 21 23 25 30 34 36 35 33 30 27 26 24 23 22 23 23 23 22 22 22 23 23 23 21 21 22 22 22 22
nan nan nan nan nan nan nan nan nan nan nan nan nan nan nan nan nan nan 24 25 26 26 26 28 28 27 24 23 20 20 22 23 24 24 24 23 22 21 19 18 20 20 20 21 22 22 21 20 19 18 19 19 21 23 24 24 24 23 23 24 26 30 34 37 36 33 31 28 27 26 25 25 25 24 25 25 25 26 25 24 24 24 26 26 27 27
nan nan nan nan nan nan nan nan nan nan nan nan 12 15 nan nan nan nan nan 22 22 24 27 28 25 25 28 26 22 20 21 22 22 21 21 22 21 21 21 20 18 18 19 20 21 20 20 21 20 19 19 21 22 23 nan nan 25 25 23 23 22 26 30 34 35 34 34 31 30 29 28 28 27 30 36 38 34 28 26 26 26 28 32 34 33 33
nan nan nan nan nan nan nan nan nan nan nan 18 nan 15 nan 19 nan nan nan nan 20 23 26 27 27 27 28 27 23 20 18 19 22 22 20 20 20 19 20 19 18 16 16 18 21 21 22 22 21 22 23 24 24 24 23 nan nan 23 23 22 21 22 26 30 32 34 35 33 33 33 34 33 33 34 34 36 36 34 28 27 32 33 33 35 34 35
nan nan nan nan nan nan nan nan nan nan nan nan nan nan nan nan nan nan nan nan 19 20 24 29 28 29 30 27 26 20 19 nan nan nan 19 18 17 17 18 18 19 18 18 19 21 22 22 22 25 26 26 26 25 23 nan nan nan nan nan 20 20 20 21 24 27 31 34 34 33 35 37 35 34 33 30 30 32 36 35 33 32 33 32 35 36 37
nan nan nan nan nan nan nan nan nan nan nan nan nan nan 15 nan nan 22 nan nan nan 21 22 25 26 26 29 28 25 24 21 nan nan nan 17 17 16 17 19 18 19 19 18 18 19 21 22 26 28 28 27 26 25 nan nan nan nan nan nan nan nan 19 19 20 22 26 30 34 37 36 37 35 34 36 37 35 38 42 42 39 37 36 38 39 39 40
nan nan nan nan nan nan nan nan nan nan nan nan nan nan nan nan nan nan nan nan nan 17 21 23 24 24 25 26 28 26 24 nan nan nan 19 19 19 18 18 17 18 18 18 19 20 24 28 29 29 30 29 27 24 24 nan nan nan nan nan nan nan nan nan 19 22 24 28 33 36 38 37 35 35 39 41 40 39 40 43 43 42 42 42 42 41 41
nan nan nan nan nan nan nan nan nan nan nan nan nan nan nan nan nan nan nan nan nan 18 19 22 21 23 28 28 25 25 15 nan 19 21 24 23 23 21 20 17 17 19 17 20 24 28 31 30 29 28 29 28 nan nan nan nan nan nan nan nan nan nan nan nan 23 25 27 31 35 37 39 40 40 40 39 39 41 44 47 47 47 46 46 44 41 42
nan nan nan nan nan nan nan nan nan nan nan nan nan nan nan nan nan nan nan nan 24 20 20 23 23 23 26 26 23 22 21 19 21 24 24 24 23 22 20 16 15 nan nan nan 25 29 30 31 31 30 nan nan nan 26 nan nan nan nan nan 9 8 9 nan nan nan 26 30 31 33 34 37 40 41 40 40 42 45 46 48 49 51 51 52 48 45 46
nan nan nan nan nan nan nan nan nan nan nan nan nan nan nan nan nan nan nan nan 20 25 26 22 24 24 26 24 23 25 24 23 23 23 23 24 23 21 19 17 nan nan nan nan 24 27 30 32 32 nan 31 30 30 nan nan nan 19 15 12 7 5 9 nan nan nan 27 29 31 33 33 35 37 39 40 41 42 45 51 53 53 54 54 54 53 51 51
nan nan nan nan nan nan nan nan nan nan nan nan nan nan nan nan nan nan nan 24 22 25 24 24 21 23 24 27 27 24 24 24 22 24 25 25 22 19 18 18 nan nan nan nan nan nan 29 30 nan 32 32 31 nan nan nan nan 23 20 19 17 16 13 nan nan nan 28 30 30 32 34 36 36 36 38 40 43 47 52 54 54 56 56 54 54 55 55
nan nan nan nan nan nan nan nan nan nan nan nan nan nan nan nan nan nan nan 27 26 21 23 23 20 21 23 27 27 26 24 21 23 25 26 24 22 20 18 nan nan nan nan nan nan nan nan nan nan nan 33 nan nan nan 31 29 27 27 28 24 20 19 21 22 22 26 28 30 31 34 36 38 38 38 39 42 47 51 53 56 58 58 55 56 55 55
nan nan nan nan nan nan nan nan nan nan nan nan nan nan nan nan nan nan nan 28 22 25 25 22 21 23 24 26 29 22 21 21 24 24 24 23 21 21 22 nan nan nan nan nan nan nan nan nan nan nan 34 35 35 nan 31 30 29 31 28 26 26 24 24 22 22 22 24 27 31 34 40 43 42 41 44 45 45 48 52 57 58 57 55 56 54 54
nan nan nan nan nan nan nan nan nan nan nan nan nan nan nan nan nan nan 31 29 27 27 24 22 25 25 25 25 25 24 21 22 23 24 24 23 22 21 23 nan nan nan nan nan nan nan nan nan nan nan 35 37 36 34 31 29 29 29 27 28 26 26 25 26 28 28 27 28 30 32 36 42 40 42 43 43 45 49 53 57 58 56 54 54 54 53
nan nan nan nan nan nan nan nan 36 37 38 37 37 37 36 34 34 33 30 28 27 27 25 24 27 26 24 24 23 25 23 23 24 24 23 22 22 22 nan nan nan nan nan nan nan nan nan nan nan 30 34 36 35 33 31 30 29 29 28 27 25 24 27 27 28 30 32 33 30 28 29 30 41 44 40 39 44 51 54 54 54 51 50 51 52 52
nan nan nan nan nan 39 nan 37 36 38 38 36 32 31 30 29 31 30 30 30 29 28 27 25 22 23 24 24 24 26 26 23 24 24 23 23 23 22 nan nan nan nan nan nan nan nan nan 22 24 28 31 34 33 32 32 31 29 28 29 28 25 24 28 nan nan nan 32 32 30 28 26 28 31 36 39 41 44 46 45 47 46 44 42 nan nan nan
nan nan nan nan nan nan nan nan 35 nan nan 29 27 28 27 26 28 29 29 29 26 25 24 27 25 23 23 25 25 26 26 25 24 24 24 23 23 nan nan nan nan nan nan nan nan nan nan 24 24 25 28 31 32 32 33 33 30 29 29 nan nan nan nan nan nan nan 31 31 31 31 nan nan 36 nan nan nan nan nan nan nan nan nan nan nan nan nan
nan nan nan nan nan nan nan nan nan nan nan nan 30 29 26 26 27 28 26 26 23 22 24 29 28 25 24 22 22 25 26 26 25 25 26 24 nan nan nan nan nan nan nan nan nan nan nan 22 22 23 26 28 29 32 33 33 nan nan nan nan nan nan nan nan nan nan nan 32 34 nan nan nan nan nan nan nan nan nan nan nan nan nan nan nan nan nan
Wind_Direction
nan nan nan nan nan nan nan nan nan nan nan nan nan 241 250 254 243 228 207 211 222 206 182 201 188 184 170 172 174 171 185 nan nan 185 nan nan 143 121 120 246 341 70 70 52 30 31 22 25 37 51 61 66 71 88 97 105 104 94 88 98 99 115 128 135 143 150 153 153 149 149 128 119 116 119 117 113 111 110 109 102 99 104 125 136 139 139
nan nan nan nan nan nan nan nan nan nan nan nan nan 253 249 258 257 237 226 240 223 224 215 223 200 169 172 186 170 173 192 199 341 253 nan 159 163 157 122 203 265 174 176 228 308 30 26 33 26 36 53 52 45 69 76 92 107 109 101 95 106 122 121 128 136 146 151 150 146 148 128 134 133 127 122 116 117 114 116 105 102 110 123 129 135 146
nan nan nan nan nan nan nan nan nan nan nan nan nan nan 254 246 250 241 222 231 227 222 220 240 237 141 149 208 167 169 175 194 205 256 268 281 210 191 181 183 229 237 193 191 318 350 32 26 17 27 46 51 48 40 40 87 119 121 119 113 120 122 122 130 141 153 149 151 152 150 150 146 141 137 135 138 147 139 119 112 112 121 126 134 142 153
nan nan nan nan nan nan nan nan nan nan nan nan nan nan nan 237 248 234 226 228 217 228 230 246 276 171 180 197 265 150 193 184 222 221 223 253 266 199 239 240 263 277 273 178 328 350 18 30 19 22 46 52 45 58 66 68 94 123 126 133 133 132 139 143 144 148 148 154 153 158 170 158 167 154 161 168 177 160 137 119 127 131 137 138 143 157
nan nan nan nan nan nan nan nan nan nan nan nan nan nan 225 240 226 242 253 240 224 229 239 245 244 216 220 189 198 214 196 198 193 220 205 201 200 184 196 201 211 311 313 299 299 324 348 21 25 15 30 36 31 31 29 36 71 116 104 126 134 148 152 156 154 154 163 173 181 183 188 186 180 184 191 190 183 155 138 149 146 133 144 142 141 153
nan nan nan nan nan nan nan nan nan nan nan nan nan nan nan 240 250 246 258 251 230 224 239 253 240 nan 235 221 219 229 231 232 199 207 191 194 192 189 203 216 191 183 258 324 358 355 356 9 16 7 7 25 40 34 34 21 25 93 116 136 151 163 174 172 163 174 185 183 192 198 203 198 188 192 198 184 157 144 139 138 159 167 160 155 151 157
nan nan nan nan nan nan nan nan nan nan nan nan nan nan 241 257 256 263 259 242 237 248 223 238 259 nan nan 237 228 225 226 237 204 178 158 172 194 195 182 218 220 198 184 173 183 224 313 335 340 0 7 16 24 36 355 337 350 18 136 132 153 168 173 179 177 192 195 194 187 191 194 194 191 194 160 166 177 169 163 190 190 171 181 170 163 162
nan nan nan nan nan nan nan nan nan nan nan nan nan nan 246 257 267 273 266 244 247 239 235 236 246 245 234 nan 236 223 237 240 214 180 160 157 197 204 178 206 230 211 197 209 203 201 239 306 333 2 14 8 17 0 321 307 252 297 215 167 148 172 182 184 193 195 203 204 190 185 184 191 191 187 173 181 189 196 200 199 188 191 181 184 180 178
nan nan nan nan nan nan nan nan nan nan nan nan 221 240 239 245 242 249 251 251 249 249 239 239 238 239 247 nan 238 243 256 243 231 227 208 167 186 204 194 193 212 223 219 217 221 222 233 286 323 341 16 19 352 332 334 324 299 255 223 214 179 168 189 196 207 204 195 208 213 204 201 197 186 184 185 197 204 213 205 203 196 190 186 187 185 189
nan nan nan nan nan nan nan nan nan nan nan 226 243 240 241 238 237 246 247 248 247 nan nan 249 249 244 225 nan 238 240 247 239 251 260 256 239 188 200 206 207 206 214 220 217 220 237 235 259 300 353 356 338 358 348 328 294 263 249 228 224 200 153 190 215 220 216 209 215 227 220 205 205 198 197 203 205 206 210 211 206 199 196 196 192 192 190
nan nan nan nan nan nan nan nan nan nan nan 258 244 247 243 240 238 240 249 255 248 249 255 256 253 248 nan 238 251 253 254 257 nan nan nan 251 234 199 211 221 229 228 225 225 226 225 229 242 266 272 330 351 337 321 311 288 272 258 248 237 226 145 198 232 241 240 236 227 239 229 213 203 206 208 211 212 205 210 210 206 203 206 196 199 196 202
nan nan nan nan nan nan nan nan nan 231 248 252 245 256 255 239 241 244 244 251 261 251 nan 264 271 251 nan 234 232 248 239 248 252 243 246 256 277 293 255 236 243 244 234 231 235 236 235 227 223 241 280 302 321 303 304 293 269 262 253 245 252 185 200 232 238 246 249 248 250 232 224 206 198 216 214 217 214 212 215 213 212 211 212 199 198 199
nan nan nan nan nan nan nan nan nan nan nan 249 255 245 nan 256 259 265 259 267 275 nan 267 266 276 252 245 nan nan 231 234 235 252 256 247 257 258 259 262 272 256 254 249 240 237 242 245 247 251 247 240 246 261 284 304 309 294 276 261 266 276 211 208 232 246 251 252 256 258 243 223 199 199 203 206 210 210 208 213 218 215 221 213 210 202 196
nan nan nan nan nan nan nan nan nan nan nan nan nan nan nan nan nan 274 269 nan nan nan nan 273 271 265 nan 229 268 260 246 243 239 243 241 248 256 266 267 246 254 261 265 255 242 243 250 249 237 237 239 240 246 267 285 295 289 273 261 262 280 268 231 221 229 240 243 250 253 243 224 207 206 196 197 200 204 202 205 217 212 214 213 209 197 197
nan nan nan nan nan nan nan nan nan nan nan nan nan nan nan nan nan nan nan nan nan nan 273 274 nan nan nan 281 274 272 247 233 239 240 237 234 235 242 255 263 247 249 262 265 255 248 253 255 248 233 235 234 240 258 268 266 275 270 262 258 261 246 230 225 222 222 225 224 234 227 213 210 203 197 193 189 189 194 198 202 203 192 195 195 183 179
nan nan nan nan nan nan nan nan nan nan nan nan nan nan nan nan nan nan nan nan nan 284 281 285 nan nan nan 288 270 258 251 257 248 242 241 236 237 240 242 252 258 252 260 270 272 257 248 252 251 237 229 234 238 252 260 274 263 262 257 254 259 262 249 231 219 212 216 215 220 221 216 209 202 191 191 183 179 176 178 184 184 176 174 170 174 174
nan nan nan nan nan nan nan nan nan nan nan nan nan nan nan nan nan nan nan nan nan nan nan 286 278 291 nan 274 278 245 261 250 248 246 243 237 236 244 244 241 242 244 241 250 264 261 248 244 249 247 237 236 240 244 258 266 264 270 255 247 242 236 235 236 221 212 212 215 216 209 207 211 206 196 193 185 170 161 165 170 169 171 165 169 173 171
nan nan nan nan nan nan nan nan nan nan nan nan nan nan nan nan nan nan nan nan nan nan nan nan 288 281 nan 288 257 259 257 258 247 245 250 249 239 238 238 242 243 243 244 235 234 246 245 237 245 246 237 236 243 247 246 257 257 253 253 257 257 241 240 233 226 213 212 216 212 207 202 199 201 200 193 186 169 165 167 164 167 170 172 167 170 173
nan nan nan nan nan nan nan nan nan nan nan nan nan nan nan nan nan nan nan nan nan nan nan nan nan nan nan nan 268 263 258 254 248 242 247 245 243 241 237 237 240 240 240 241 236 239 240 231 225 227 224 215 214 228 233 239 249 247 245 245 251 256 251 255 236 223 213 213 209 207 202 201 198 198 197 190 185 182 172 169 173 174 166 171 178 179
nan nan nan nan nan nan nan nan nan nan nan nan nan nan nan nan nan nan nan nan nan nan nan nan nan nan nan nan 286 276 268 261 256 248 245 246 248 245 240 240 243 248 248 247 249 253 257 254 248 242 236 223 205 200 203 213 227 238 246 251 239 227 225 227 235 232 224 218 213 208 208 201 199 201 200 202 204 198 185 179 183 181 183 181 189 187
nan nan nan nan nan nan nan nan nan nan nan nan nan nan nan nan nan nan nan nan nan nan nan nan nan nan nan nan 286 288 281 272 271 261 255 249 249 246 240 237 241 242 248 254 257 255 251 256 259 261 258 249 235 229 222 213 216 221 223 229 239 241 232 227 229 231 222 222 216 214 212 206 204 200 205 207 210 207 198 196 196 194 194 208 197 201
nan nan nan nan nan nan nan nan nan nan nan nan nan nan nan nan nan nan nan nan nan nan nan nan nan nan nan nan 294 292 288 280 276 270 260 251 249 249 242 238 238 240 243 243 250 259 260 257 255 255 253 241 225 224 235 237 230 219 216 214 228 230 226 226 224 226 224 221 220 219 214 210 208 205 207 208 211 211 211 210 209 207 211 211 204 207
nan nan nan nan nan nan nan nan nan nan nan nan nan nan nan nan nan nan nan nan nan nan nan nan nan nan nan nan 287 292 292 291 276 275 265 251 249 250 254 249 240 244 242 237 237 247 257 266 260 259 258 240 225 222 226 229 238 238 224 217 214 224 224 227 223 223 225 224 223 221 218 217 214 213 212 211 212 211 212 215 217 219 216 212 208 208
250 nan nan nan nan nan nan nan nan nan nan nan nan nan nan nan nan nan nan nan nan nan nan nan nan nan nan 274 283 287 289 284 275 276 268 249 247 246 248 248 240 231 231 232 238 243 246 244 246 255 257 248 232 227 228 228 229 237 237 232 223 216 223 228 224 221 220 222 223 225 225 223 219 220 217 216 215 214 214 218 219 223 221 214 212 208
nan nan nan nan nan nan nan nan nan nan nan nan nan nan nan nan nan nan nan nan nan nan nan nan nan nan nan 277 281 281 278 276 274 270 275 253 247 245 244 244 244 236 228 226 229 237 244 246 242 238 248 250 238 231 230 231 233 233 235 239 237 222 222 226 229 227 220 220 223 226 227 225 225 222 222 220 219 217 217 218 218 221 221 217 205 208
nan nan nan nan nan nan nan nan nan nan nan nan nan nan nan nan nan nan nan nan nan nan nan nan nan nan nan nan 278 279 274 270 273 273 265 265 247 244 242 243 245 248 236 224 224 229 241 249 245 237 228 224 233 235 228 230 233 231 230 234 240 237 230 230 232 232 228 222 221 223 227 228 227 224 224 224 223 222 219 219 218 216 218 217 203 212
nan nan nan nan nan nan nan nan nan nan nan nan nan nan nan nan nan nan nan nan nan nan nan nan nan nan nan nan nan nan nan nan nan nan 268 258 252 248 244 242 244 247 245 235 225 227 237 243 247 247 242 236 228 227 225 233 236 234 231 228 232 236 238 235 234 235 235 231 225 221 223 228 229 228 226 224 225 224 222 222 222 221 218 217 209 221
nan nan nan nan nan nan nan nan nan nan nan nan nan nan nan nan nan nan nan nan nan nan nan nan nan nan nan nan nan nan nan nan nan nan 264 264 260 251 244 240 238 243 245 242 237 232 232 238 241 242 249 249 245 238 232 230 232 233 232 230 232 235 237 234 236 235 237 238 233 226 223 226 230 231 230 228 227 228 227 228 227 227 225 221 215 223
nan nan nan nan nan nan nan nan nan nan nan nan nan nan nan nan nan nan nan nan nan nan nan nan nan nan nan nan nan nan nan nan nan nan nan 264 261 254 247 242 240 241 242 242 240 238 236 234 237 241 242 249 257 257 247 240 237 233 230 227 225 231 238 240 236 233 236 239 241 237 231 229 229 232 234 234 233 232 231 232 232 231 228 223 216 225
nan nan nan nan nan nan nan nan nan nan nan nan nan nan nan nan nan nan nan nan nan nan nan nan nan nan nan nan nan 269 269 nan 270 271 263 258 257 255 252 247 244 244 242 239 237 237 239 241 240 235 238 242 250 256 258 256 246 234 228 231 231 227 231 241 239 235 233 234 240 242 239 235 232 234 238 239 239 239 237 237 236 234 231 225 221 225
nan nan 275 nan nan nan nan nan nan nan nan nan nan nan nan nan nan nan nan nan nan nan nan nan nan nan nan nan 282 276 270 266 260 259 263 264 259 254 251 249 246 243 244 244 243 240 238 237 238 239 235 235 241 248 250 251 252 239 225 227 233 233 233 238 238 237 234 229 231 239 241 239 234 234 237 239 240 240 240 238 236 234 233 230 227 230
nan nan nan nan nan nan nan nan nan nan nan nan nan nan nan nan nan nan nan nan nan nan nan nan nan nan nan nan 285 274 266 264 265 265 263 261 256 251 250 248 246 245 244 240 240 239 238 234 231 230 230 232 233 239 247 246 246 241 228 228 234 238 238 236 237 238 236 230 229 233 239 241 240 236 232 233 235 239 239 238 237 236 237 236 234 235
nan nan nan nan nan nan nan nan nan nan nan nan nan nan nan nan nan nan nan nan nan nan nan nan nan nan nan 292 285 270 269 264 261 262 262 261 260 260 259 255 250 244 241 239 236 235 235 234 231 230 229 230 232 235 238 244 245 242 234 231 236 242 244 241 239 240 241 238 236 235 238 241 243 242 236 232 230 231 232 235 237 237 238 239 238 240
nan nan nan nan nan nan nan nan nan nan nan nan nan nan nan nan nan nan nan nan nan nan nan nan nan nan 285 285 282 270 265 265 266 263 265 268 269 265 254 248 247 239 236 238 235 232 232 233 230 230 230 232 234 236 236 238 242 244 243 241 240 242 241 241 241 241 241 244 243 241 241 244 246 246 244 238 234 231 231 232 234 235 236 236 239 242
nan nan nan nan nan nan nan nan nan nan nan nan nan nan nan nan nan nan 265 265 267 269 270 272 276 279 284 285 280 268 264 265 268 269 267 271 270 264 258 251 243 242 237 231 227 226 227 227 224 221 222 227 232 235 235 234 237 239 242 245 245 244 239 238 239 240 242 245 247 247 247 247 246 246 246 243 240 238 235 235 234 234 235 236 238 243
nan nan nan nan nan nan nan nan nan nan nan nan 261 267 nan nan nan nan nan 263 269 275 275 276 285 287 286 280 271 267 264 261 259 263 270 272 272 267 262 256 252 244 238 237 231 227 225 225 223 218 213 221 226 229 nan nan 232 234 235 240 245 245 242 238 239 239 239 240 245 249 252 252 248 245 240 235 230 232 238 241 241 243 242 241 240 240
nan nan nan nan nan nan nan nan nan nan nan 263 nan 278 nan 286 nan nan nan nan 278 280 287 281 284 288 286 283 278 271 260 260 256 251 260 272 271 269 268 262 261 253 243 237 236 230 226 223 222 220 217 217 221 225 226 nan nan 229 231 234 239 245 242 242 241 240 238 237 240 246 251 255 255 251 251 252 247 232 228 244 250 250 249 249 249 248
nan nan nan nan nan nan nan nan nan nan nan nan nan nan nan nan nan nan nan nan 274 286 288 288 294 292 286 281 277 269 259 nan nan nan 261 261 266 266 263 261 258 251 244 235 233 232 231 227 225 225 221 215 216 221 nan nan nan nan nan 230 235 240 238 236 238 238 233 232 239 245 250 254 254 251 251 255 258 253 245 242 248 258 260 261 258 254
nan nan nan nan nan nan nan nan nan nan nan nan nan nan 276 nan nan 282 nan nan nan 295 297 292 287 288 289 285 278 266 260 nan nan nan 265 268 270 271 270 269 266 257 249 242 236 231 232 230 225 222 221 217 212 nan nan nan nan nan nan nan nan 232 228 228 230 232 231 231 234 241 250 253 253 253 253 249 244 243 248 255 254 249 249 250 253 257
nan nan nan nan nan nan nan nan nan nan nan nan nan nan nan nan nan nan nan nan nan 294 295 288 288 291 286 280 278 269 271 nan nan nan 275 279 276 272 271 273 270 261 253 246 239 236 232 229 225 224 222 218 214 216 nan nan nan nan nan nan nan nan nan 227 228 230 232 237 242 245 249 253 255 255 255 254 252 249 249 249 251 253 252 249 251 253
nan nan nan nan nan nan nan nan nan nan nan nan nan nan nan nan nan nan nan nan nan 300 300 295 294 288 286 283 279 272 278 nan 266 276 279 279 276 272 271 273 279 277 267 250 238 231 232 232 232 228 224 223 nan nan nan nan nan nan nan nan nan nan nan nan 234 237 242 244 247 250 249 249 254 260 261 259 256 252 252 255 258 256 253 250 247 250
nan nan nan nan nan nan nan nan nan nan nan nan nan nan nan nan nan nan nan nan 299 304 300 298 294 288 288 290 285 273 263 267 269 274 281 282 285 284 285 288 277 nan nan nan 245 238 234 233 231 228 nan nan nan 220 nan nan nan nan nan 215 223 224 nan nan nan 252 252 254 255 255 254 254 254 259 260 259 257 255 254 254 256 257 255 251 249 249
nan nan nan nan nan nan nan nan nan nan nan nan nan nan nan nan nan nan nan nan 293 296 299 295 291 289 288 283 274 273 270 272 275 280 279 278 281 285 288 285 nan nan nan nan 251 243 238 235 233 nan 228 227 225 nan nan nan 216 217 222 224 225 226 nan nan nan 261 261 260 260 259 258 257 259 256 255 259 260 257 255 255 256 257 256 254 250 249
nan nan nan nan nan nan nan nan nan nan nan nan nan nan nan nan nan nan nan 292 284 286 293 292 288 290 291 286 286 278 276 276 273 273 274 276 281 279 279 274 nan nan nan nan nan nan 243 238 nan 233 231 230 nan nan nan nan 226 229 233 232 231 246 nan nan nan 264 264 263 263 263 259 259 261 261 258 257 256 257 260 258 257 258 259 257 254 252
nan nan nan nan nan nan nan nan nan nan nan nan nan nan nan nan nan nan nan 296 293 285 282 286 295 292 293 289 285 283 277 278 275 276 276 279 281 283 285 nan nan nan nan nan nan nan nan nan nan nan 233 nan nan nan 231 232 232 234 235 235 239 263 269 269 267 268 267 264 263 264 261 255 255 261 261 259 258 257 258 258 258 257 257 257 254 252
nan nan nan nan nan nan nan nan nan nan nan nan nan nan nan nan nan nan nan 289 285 280 288 289 289 292 291 291 285 281 282 281 278 276 276 280 279 275 274 nan nan nan nan nan nan nan nan nan nan nan 234 233 232 nan 234 234 237 238 238 241 245 248 251 254 262 268 268 262 259 258 257 255 247 242 252 254 254 257 257 259 258 257 256 254 252 248
nan nan nan nan nan nan nan nan nan nan nan nan nan nan nan nan nan nan 288 289 285 279 276 267 282 291 296 295 293 290 285 285 282 280 279 275 274 273 273 nan nan nan nan nan nan nan nan nan nan nan 235 234 232 234 234 234 236 238 238 239 241 246 251 252 249 247 248 251 247 242 251 257 256 255 253 255 260 260 256 254 255 256 252 250 250 246
nan nan nan nan nan nan nan nan 255 258 262 262 267 273 275 277 277 279 280 281 277 269 266 271 276 279 284 288 288 289 286 286 284 279 276 275 274 273 nan nan nan nan nan nan nan nan nan nan nan 239 236 236 234 235 235 234 232 231 233 233 234 245 255 253 250 247 246 246 245 239 235 249 270 268 261 256 253 255 254 254 256 254 248 247 248 248
nan nan nan nan nan 249 nan 256 258 257 255 258 260 266 268 273 276 273 273 275 274 269 265 266 272 286 288 287 284 284 285 286 286 283 279 273 272 271 nan nan nan nan nan nan nan nan nan 256 251 245 239 236 234 235 235 233 231 229 229 228 228 239 252 nan nan nan 243 239 238 235 235 239 230 239 251 250 245 243 249 255 254 251 244 nan nan nan
nan nan nan nan nan nan nan nan 257 nan nan 252 258 265 265 265 267 270 270 272 273 272 274 274 265 266 272 281 285 285 288 286 283 282 280 277 276 nan nan nan nan nan nan nan nan nan nan 259 256 249 243 238 235 235 236 235 234 231 228 nan nan nan nan nan nan nan 236 236 234 232 nan nan 225 nan nan nan nan nan nan nan nan nan nan nan nan nan
nan nan nan nan nan nan nan nan nan nan nan nan 266 264 259 260 265 271 274 276 272 271 277 276 271 265 269 270 272 280 280 283 284 279 276 276 nan nan nan nan nan nan nan nan nan nan nan 262 259 251 244 239 238 238 238 238 nan nan nan nan nan nan nan nan nan nan nan 236 233 nan nan nan nan nan nan nan nan nan nan nan nan nan nan nan nan nan